Tracking 28091 objects as of 29-Sep-2023
HD Live streaming from Space Station
objects crossing your sky now

STARLINK-2095

Track STARLINK-2095 now!
10-day predictions
STARLINK-2095 is classified as:


NORAD ID: 47679
Int'l Code: 2021-012BM
Perigee: 553.5 km
Apogee: 555.2 km
Inclination: 53.1 °
Period: 95.6 minutes
Semi major axis: 6925 km
RCS: Unknown
Launch date: February 16, 2021
Source: United States (US)
Launch site: AIR FORCE EASTERN TEST RANGE (AFETR)
Your satellite tracking list
Your tracking list is empty




NASA's NSSDC Master Catalog

Two Line Element Set (TLE):
1 47679U 21012BM  23271.99301481 -.00001790  00000-0 -10132-3 0  9998
2 47679  53.0542 119.0879 0001231 108.7325 251.3798 15.06392960144928
Source of the keplerian elements: AFSPC